Location: *
(24.1167°S, 147.1333°W)
Time: 23:00:50
(UTC+00:00)

Daily predictions for brighter satellites

Satellite Brightness Start Highest point End
(mag) Time Altitude Azimuth Time Altitude Azimuth Time Altitude Azimuth
Milstar 3 Cent rocket 4.5 12:33:57 50° ENE 12:33:57 50° ENE 12:39:40 10° ENE
ATLAS 3B R/B 4.5 13:37:52 18° N 13:37:52 18° N 13:39:20 10° N
Atlas 2A Centaur Rocket 3.9 13:35:37 47° NE 13:35:37 47° NE 13:38:23 10° ENE
ASC 2 Rocket 4.3 13:47:41 62° E 13:47:41 62° E 13:54:20 10° E
ATLAS 3B CENTAUR R/B 2.8 13:50:11 56° ENE 13:50:11 56° ENE 13:53:35 10° ENE
Cosmos 2237 Rocket 2.4 14:01:19 68° E 14:01:19 68° E 14:06:50 10° NNE
CZ-3 R/B 3.4 13:31:57 10° WNW 14:07:51 77° NNE 14:16:02 10° ESE
BREEZE-M DEB (TANK) 4.3 14:07:23 56° NNW 14:08:45 81° NE 14:25:38 10° SE
Delta 7925 Rocket 3.7 14:11:02 67° NNE 14:11:02 67° NNE 14:15:39 10° ENE
Cosmos 1825 4.2 14:13:36 21° SE 14:15:04 26° E 14:18:17 10° NE
Delta 2 Rocket 3.9 14:15:24 69° WSW 14:16:09 78° S 14:22:24 10° E
Meteor 2-13 Rocket 4.3 14:24:26 59° SW 14:25:14 65° W 14:31:12 10° N
GPS 2-04 Rocket1 4.2 14:27:39 26° SE 14:27:39 26° SE 14:29:17 10° ESE
Lacrosse 5 rocket 2.6 14:28:51 30° SSE 14:29:33 32° SE 14:32:57 10° ENE
USA 215 3.2 14:23:19 10° SE 14:29:57 84° NE 14:36:30 10° NW
CZ-4B R/B 3.7 14:26:06 10° NNE 14:30:10 53° ESE 14:33:18 18° S
Cosmos 2058 4.1 14:29:57 10° S 14:34:02 44° E 14:38:03 10° NNE
Cosmos 2034 Rocket 4.4 14:34:11 10° NNW 14:41:50 34° SW 14:45:51 10° SSW
ASTEX 1 3.2 14:35:31 10° S 14:40:29 78° W 14:45:26 10° NNW
Meteor 2-1 Rocket 4.1 14:40:38 10° NNW 14:46:03 60° W 14:51:32 10° S
Cosmos 1953 Rocket 3.9 14:47:50 45° WNW 14:47:50 45° WNW 14:51:40 10° NNW
IRAS Rocket 4.3 14:41:57 10° SSE 14:47:31 80° ENE 14:53:03 10° N
deb Chang Zheng 4 4.3 14:44:06 10° NNE 14:48:11 50° ESE 14:52:20 10° S
Cosmos 1634 Rocket 4.0 14:42:19 10° N 14:48:36 90° WNW 14:55:00 10° S
Aureole 3 4.0 14:46:33 10° NNE 14:49:30 43° E 14:52:54 10° SSE
ASTRO E2 3.5 14:51:43 34° SSW 14:52:32 39° SSE 14:56:16 10° E
Cosmos 2263 Rocket 2.1 14:49:11 10° NNW 14:54:51 75° WSW 15:00:35 10° SSE
GPS 2-18 Rocket1 3.7 15:02:04 27° NW 15:03:45 47° N 15:07:27 10° E
Okean O Rocket 4.4 15:03:42 10° ENE 15:06:39 18° ESE 15:09:37 10° SSE
Milstar 3 Cent rocket 4.2 15:02:47 19° W 15:08:49 30° NW 15:14:42 10° NNE
Envisat 3.3 15:06:27 10° N 15:11:17 45° W 15:16:11 10° SSW
Meteor 2-19 Rocket 4.4 15:05:37 10° S 15:11:45 83° W 15:17:50 10° N
Cosmos 1428 Rocket 4.5 15:07:59 10° S 15:14:10 87° E 15:20:19 10° N
Cosmos 2142 Rocket 4.4 15:08:08 10° N 15:14:15 81° W 15:20:27 10° S
Landsat 5 3.7 15:09:58 10° SSE 15:14:33 87° ENE 15:19:03 10° NNW
Cosmos 2098 Rocket 3.7 15:10:43 10° SSW 15:15:11 48° W 15:20:44 10° NNW
SL-16 R/B 2.1 15:09:42 10° SSW 15:15:26 79° WNW 15:21:07 10° NNE
MOS 1 Rocket 3.6 15:10:04 10° S 15:15:35 86° WSW 15:20:57 10° NNW
NOAA 6 4.2 15:11:56 10° NNE 15:17:07 80° ESE 15:22:21 10° S
DEBRIS 3.7 15:06:34 10° NW 15:18:12 78° SW 15:21:36 10° SE
YAOGAN 6 3.5 15:15:33 10° NNW 15:18:38 27° W 15:19:57 21° WSW
NOAA 11 4.3 15:17:47 10° NNE 15:23:13 81° ESE 15:28:42 10° S
GPS 2-17 Rocket1 3.8 15:19:18 12° WNW 15:23:19 47° N 15:27:40 10° E
Cosmos-2242 3.1 15:21:14 10° N 15:25:35 88° ENE 15:30:03 10° S
Stardust Del rocket 3.6 15:26:13 14° WNW 15:28:47 62° N 15:34:22 10° E
Meteor 1-4 Rocket 2.4 15:26:15 10° N 15:29:49 81° W 15:33:24 10° S
Cosmos 1869 4.1 15:29:28 10° N 15:33:26 56° E 15:37:29 10° SSE
Cosmos 2279 Rocket 4.0 15:27:23 10° NNW 15:33:32 60° W 15:39:44 10° S
USA 229 DEB 4.3 15:29:18 10° SSW 15:35:41 54° ESE 15:41:48 10° NE
USA 229 4.3 15:29:24 10° SSW 15:35:47 53° ESE 15:41:52 10° NE
Cosmos 1076 Rocket 3.6 15:31:48 10° SSW 15:36:09 60° W 15:40:27 10° N
Cosmos 1092 Rocket 4.4 15:30:28 10° SSW 15:36:27 43° W 15:42:22 10° NNW
BREEZE-M TANK 4.4 15:39:53 10° NNW 15:43:41 34° NE 15:47:18 10° ESE
Cosmos 2026 Rocket 4.2 15:38:30 10° SSW 15:44:24 47° W 15:50:11 10° NNW
Delta 2 Rocket 3.2 15:41:37 10° W 15:44:56 49° SSW 15:48:32 10° SE
Cosmos 2151 3.1 15:41:21 10° S 15:45:41 86° E 15:49:59 10° N
Delta 198 3.3 15:41:54 10° WNW 15:46:17 80° N 15:50:08 10° E
CZ-4C R/B 3.8 15:44:02 10° SSW 15:47:03 28° WSW 15:49:58 10° NW
SKYMED 2 3.6 15:44:20 10° SSE 15:48:44 89° WSW 15:53:05 10° NNW
Cosmos 1825 4.2 15:49:34 10° W 15:50:09 10° W 15:50:45 10° W
AQUARIUS 4.2 15:46:50 10° N 15:51:16 62° W 15:55:46 10° SSW
CZ-4 R/B 4.3 15:49:06 10° ENE 15:51:25 15° ESE 15:53:47 10° SE
Tianhe-1 2.8 15:50:03 10° NNW 15:52:55 35° NE 15:55:48 10° ESE
FengYun 1-2 T 4.3 15:48:32 10° N 15:54:09 67° WNW 15:59:48 10° SSW
NOSS 3-1 (A) 3.4 15:50:11 10° SSW 15:55:50 68° ESE 16:00:52 10° NE
H-2A R/B 4.0 15:51:59 10° NE 15:56:48 33° ESE 16:01:36 10° S
